Flag for U.S.A. Weather past 2 weeks in Pasadena, California, U.S.A.

Now
54 °F

Clear.


Feels Like: 54 °F
Forecast: 54 / 76 °F
Wind: No wind

Location: Burbank-Glendale-Pasadena Airport

Current Time: Apr 19, 2015 at 7:38:06 AM

Latest Report: Apr 19, 2015 at 6:53 AM


Visibility: 10 mi

Pressure: 29.94 "Hg

Humidity: 55%

Dew point: 38 °F

Location of PasadenaLocation

Historic Weather in Pasadena — Graph

°F

Pasadena temperature yesterday

Maximum temperature yesterday: 80 °F (at 1:53 PM)
Minimum temperature yesterday: 55 °F (at 5:53 AM)
Average temperature yesterday: 67 °F

Past Weeks' High & Low Weather Summary

 TemperatureHumidityPressure
High83 °F (Apr 17, 1:53 PM)90% (Apr 7, 8:53 PM)30.08 "Hg (Apr 7, 8:53 PM)
Low45 °F (Apr 8, 5:53 AM)7% (Apr 16, 10:53 AM)29.79 "Hg (Apr 5, 4:53 PM)
Average63 °F46%29.94 "Hg
* Reported Apr 4 5:53 AM — Apr 19 5:53 AM, Pasadena, Weather by CustomWeather, © 2015

Note: Actual official high and low records may vary slightly from our data, if they occured in-between our weather recording intervals... More about our weather records

Advertising

Pasadena weather history for previous 24 hours

 ConditionsComfort  
Time TempWeatherWind HumidityBarometerVisibility
5:53 AM
Sun, Apr 19
54 °FClear.No wind55%29.91 "Hg10 mi
4:53 AM55 °FClear.No wind57%29.90 "Hg10 mi
3:53 AM56 °FClear.No wind58%29.90 "Hg10 mi
2:53 AM58 °FClear.No wind67%29.91 "Hg10 mi
1:53 AM59 °FClear.No wind67%29.92 "Hg10 mi
12:53 AM60 °FClear.3 mph67%29.93 "Hg10 mi
11:53 PM
Sat, Apr 18
61 °FClear.No wind67%29.93 "Hg10 mi
10:53 PM63 °FClear.7 mph65%29.93 "Hg10 mi
9:53 PM65 °FClear.5 mph61%29.92 "Hg10 mi
8:53 PM66 °FClear.5 mph47%29.91 "Hg10 mi
7:53 PM68 °FSunny.6 mph40%29.89 "Hg10 mi
6:53 PM72 °FSunny.7 mph34%29.88 "Hg10 mi
5:53 PM75 °FSunny.7 mph26%29.88 "Hg10 mi
4:53 PM77 °FSunny.9 mph23%29.88 "Hg10 mi
3:53 PM79 °FSunny.10 mph18%29.89 "Hg10 mi
2:53 PM79 °FSunny.10 mph23%29.90 "Hg10 mi
1:53 PM80 °FSunny.9 mph23%29.92 "Hg10 mi
12:53 PM79 °FSunny.9 mph17%29.93 "Hg10 mi
11:53 AM77 °FSunny.7 mph18%29.96 "Hg10 mi
10:53 AM75 °FSunny.8 mph17%29.98 "Hg10 mi
9:53 AM71 °FSunny.5 mph23%29.98 "Hg10 mi
8:53 AM65 °FSunny.No wind29%29.98 "Hg10 mi
7:53 AM60 °FSunny.No wind33%29.98 "Hg10 mi
Weather by CustomWeather, © 2015

See weather overviewHow to use our weather pages